Location: Forst
(46.9333°N, 15.4333°E)
Time: 16:32:53
(UTC+00:00)

Envisat - Pass Details

Date: 03 October 2021
Orbit: 764 x 766 km, 98.2° (Epoch: 19 October)

Event Time Altitude Azimuth Distance (km) Brightness Sun altitude
Rises 03:58:21 0° 16° (NNE) 3,242 6.6 -11.3°
Reaches altitude 10° 04:00:42 10° 20° (NNE) 2,311 5.8 -10.9°
Maximum altitude 04:05:45 63° 101° (E) 853 3.6 -10.0°
Drops below altitude 10° 04:10:46 10° 183° (S) 2,294 5.4 -9.2°
Sets 04:13:05 0° 186° (S) 3,216 6.1 -8.8°
